Year,Month,Day,Hour,Minute,Value (Times are PST for temperature in C)
2015,09,19,00,00,13.70
2015,09,19,00,01,13.70
2015,09,19,00,02,13.70
2015,09,19,00,03,13.70
2015,09,19,00,04,13.70
2015,09,19,00,05,13.60
2015,09,19,00,06,13.60
2015,09,19,00,07,13.60
2015,09,19,00,08,13.60
2015,09,19,00,09,13.60
2015,09,19,00,10,13.60
2015,09,19,00,11,13.60
2015,09,19,00,12,13.60
2015,09,19,00,13,13.60
2015,09,19,00,14,13.60
2015,09,19,00,15,13.60
2015,09,19,00,16,13.60
2015,09,19,00,17,13.60
2015,09,19,00,18,13.60
2015,09,19,00,19,13.60
2015,09,19,00,20,13.60
2015,09,19,00,21,13.60
2015,09,19,00,22,13.60
2015,09,19,00,23,13.60
2015,09,19,00,24,13.60
2015,09,19,00,25,13.60
2015,09,19,00,26,13.60
2015,09,19,00,27,13.60
2015,09,19,00,28,13.60
2015,09,19,00,29,13.60
2015,09,19,00,30,13.60
2015,09,19,00,31,13.60
2015,09,19,00,32,13.60
2015,09,19,00,33,13.60
2015,09,19,00,34,13.60
2015,09,19,00,35,13.60
2015,09,19,00,36,13.60
2015,09,19,00,37,13.60
2015,09,19,00,38,13.70
2015,09,19,00,39,13.70
2015,09,19,00,40,13.70
2015,09,19,00,41,13.70
2015,09,19,00,42,13.70
2015,09,19,00,43,13.70
2015,09,19,00,44,13.70
2015,09,19,00,45,13.70
2015,09,19,00,46,13.70
2015,09,19,00,47,13.70
2015,09,19,00,48,13.70
2015,09,19,00,49,13.70
2015,09,19,00,50,13.70
2015,09,19,00,51,13.70
2015,09,19,00,52,13.70
2015,09,19,00,53,13.70
2015,09,19,00,54,13.70
2015,09,19,00,55,13.80
2015,09,19,00,56,13.80
2015,09,19,00,57,13.70
2015,09,19,00,58,13.70
2015,09,19,00,59,13.70
2015,09,19,01,00,13.70
2015,09,19,01,01,13.70
2015,09,19,01,02,13.70
2015,09,19,01,03,13.70
2015,09,19,01,04,13.70
2015,09,19,01,05,13.70
2015,09,19,01,06,13.70
2015,09,19,01,07,13.70
2015,09,19,01,08,13.70
2015,09,19,01,09,13.70
2015,09,19,01,10,13.70
2015,09,19,01,11,13.70
2015,09,19,01,12,13.70
2015,09,19,01,13,13.70
2015,09,19,01,14,13.70
2015,09,19,01,15,13.70
2015,09,19,01,16,13.70
2015,09,19,01,17,13.70
2015,09,19,01,18,13.70
2015,09,19,01,19,13.70
2015,09,19,01,20,13.70
2015,09,19,01,21,13.70
2015,09,19,01,22,13.70
2015,09,19,01,23,13.70
2015,09,19,01,24,13.70
2015,09,19,01,25,13.70
2015,09,19,01,26,13.60
2015,09,19,01,27,13.60
2015,09,19,01,28,13.60
2015,09,19,01,29,13.60
2015,09,19,01,30,13.60
2015,09,19,01,31,13.60
2015,09,19,01,32,13.60
2015,09,19,01,33,13.60
2015,09,19,01,34,13.60
2015,09,19,01,35,13.60
2015,09,19,01,36,13.60
2015,09,19,01,37,13.60
2015,09,19,01,38,13.60
2015,09,19,01,39,13.60
2015,09,19,01,40,13.60
2015,09,19,01,41,13.60
2015,09,19,01,42,13.60
2015,09,19,01,43,13.60
2015,09,19,01,44,13.60
2015,09,19,01,45,13.60
2015,09,19,01,46,13.60
2015,09,19,01,47,13.60
2015,09,19,01,48,13.60
2015,09,19,01,49,13.60
2015,09,19,01,50,13.60
2015,09,19,01,51,13.60
2015,09,19,01,52,13.60
2015,09,19,01,53,13.60
2015,09,19,01,54,13.60
2015,09,19,01,55,13.60
2015,09,19,01,56,13.60
2015,09,19,01,57,13.60
2015,09,19,01,58,13.60
2015,09,19,01,59,13.60
2015,09,19,02,00,13.60
2015,09,19,02,01,13.60
2015,09,19,02,02,13.60
2015,09,19,02,03,13.60
2015,09,19,02,04,13.60
2015,09,19,02,05,13.60
2015,09,19,02,06,13.60
2015,09,19,02,07,13.60
2015,09,19,02,08,13.60
2015,09,19,02,09,13.60
2015,09,19,02,10,13.60
2015,09,19,02,11,13.60
2015,09,19,02,12,13.60
2015,09,19,02,13,13.60
2015,09,19,02,14,13.60
2015,09,19,02,15,13.60
2015,09,19,02,16,13.60
2015,09,19,02,17,13.60
2015,09,19,02,18,13.60
2015,09,19,02,19,13.60
2015,09,19,02,20,13.60
2015,09,19,02,21,13.60
2015,09,19,02,22,13.60
2015,09,19,02,23,13.60
2015,09,19,02,24,13.60
2015,09,19,02,25,13.60
2015,09,19,02,26,13.60
2015,09,19,02,27,13.60
2015,09,19,02,28,13.60
2015,09,19,02,29,13.60
2015,09,19,02,30,13.60
2015,09,19,02,31,13.60
2015,09,19,02,32,13.60
2015,09,19,02,33,13.60
2015,09,19,02,34,13.60
2015,09,19,02,35,13.60
2015,09,19,02,36,13.60
2015,09,19,02,37,13.60
2015,09,19,02,38,13.60
2015,09,19,02,39,13.60
2015,09,19,02,40,13.60
2015,09,19,02,41,13.60
2015,09,19,02,42,13.60
2015,09,19,02,43,13.60
2015,09,19,02,44,13.60
2015,09,19,02,45,13.50
2015,09,19,02,46,13.60
2015,09,19,02,47,13.50
2015,09,19,02,48,13.50
2015,09,19,02,49,13.50
2015,09,19,02,50,13.50
2015,09,19,02,51,13.50
2015,09,19,02,52,13.50
2015,09,19,02,53,13.50
2015,09,19,02,54,13.50
2015,09,19,02,55,13.50
2015,09,19,02,56,13.50
2015,09,19,02,57,13.50
2015,09,19,02,58,13.50
2015,09,19,02,59,13.50
2015,09,19,03,00,13.50
2015,09,19,03,01,13.50
2015,09,19,03,02,13.50
2015,09,19,03,03,13.50
2015,09,19,03,04,13.50
2015,09,19,03,05,13.50
2015,09,19,03,06,13.50
2015,09,19,03,07,13.50
2015,09,19,03,08,13.50
2015,09,19,03,09,13.50
2015,09,19,03,10,13.50
2015,09,19,03,11,13.50
2015,09,19,03,12,13.50
2015,09,19,03,13,13.50
2015,09,19,03,14,13.50
2015,09,19,03,15,13.50
2015,09,19,03,16,13.50
2015,09,19,03,17,13.50
2015,09,19,03,18,13.50
2015,09,19,03,19,13.50
2015,09,19,03,20,13.50
2015,09,19,03,21,13.50
2015,09,19,03,22,13.50
2015,09,19,03,23,13.50
2015,09,19,03,24,13.40
2015,09,19,03,25,13.40
2015,09,19,03,26,13.40
2015,09,19,03,27,13.40
2015,09,19,03,28,13.40
2015,09,19,03,29,13.40
2015,09,19,03,30,13.40
2015,09,19,03,31,13.40
2015,09,19,03,32,13.40
2015,09,19,03,33,13.40
2015,09,19,03,34,13.40
2015,09,19,03,35,13.40
2015,09,19,03,36,13.40
2015,09,19,03,37,13.40
2015,09,19,03,38,13.40
2015,09,19,03,39,13.40
2015,09,19,03,40,13.40
2015,09,19,03,41,13.40
2015,09,19,03,42,13.40
2015,09,19,03,43,13.40
2015,09,19,03,44,13.40
2015,09,19,03,45,13.40
2015,09,19,03,46,13.40
2015,09,19,03,47,13.40
2015,09,19,03,48,13.40
2015,09,19,03,49,13.40
2015,09,19,03,50,13.40
2015,09,19,03,51,13.40
2015,09,19,03,52,13.40
2015,09,19,03,53,13.40
2015,09,19,03,54,13.40
2015,09,19,03,55,13.40
2015,09,19,03,56,13.40
2015,09,19,03,57,13.40
2015,09,19,03,58,13.40
2015,09,19,03,59,13.40
2015,09,19,04,00,13.40
2015,09,19,04,01,13.40
2015,09,19,04,02,13.40
2015,09,19,04,03,13.40
2015,09,19,04,04,13.40
2015,09,19,04,05,13.40
2015,09,19,04,06,13.40
2015,09,19,04,07,13.40
2015,09,19,04,08,13.40
2015,09,19,04,09,13.40
2015,09,19,04,10,13.40
2015,09,19,04,11,13.40
2015,09,19,04,12,13.40
2015,09,19,04,13,13.40
2015,09,19,04,14,13.40
2015,09,19,04,15,13.40
2015,09,19,04,16,13.40
2015,09,19,04,17,13.40
2015,09,19,04,18,13.40
2015,09,19,04,19,13.40
2015,09,19,04,20,13.40
2015,09,19,04,21,13.40
2015,09,19,04,22,13.40
2015,09,19,04,23,13.40
2015,09,19,04,24,13.40
2015,09,19,04,25,13.40
2015,09,19,04,26,13.40
2015,09,19,04,27,13.40
2015,09,19,04,28,13.40
2015,09,19,04,29,13.40
2015,09,19,04,30,13.40
2015,09,19,04,31,13.40
2015,09,19,04,32,13.40
2015,09,19,04,33,13.40
2015,09,19,04,34,13.40
2015,09,19,04,35,13.40
2015,09,19,04,36,13.40
2015,09,19,04,37,13.40
2015,09,19,04,38,13.40
2015,09,19,04,39,13.40
2015,09,19,04,40,13.40
2015,09,19,04,41,13.40
2015,09,19,04,42,13.40
2015,09,19,04,43,13.40
2015,09,19,04,44,13.40
2015,09,19,04,45,13.40
2015,09,19,04,46,13.40
2015,09,19,04,47,13.40
2015,09,19,04,48,13.40
2015,09,19,04,49,13.40
2015,09,19,04,50,13.40
2015,09,19,04,51,13.40
2015,09,19,04,52,13.40
2015,09,19,04,53,13.40
2015,09,19,04,54,13.40
2015,09,19,04,55,13.40
2015,09,19,04,56,13.40
2015,09,19,04,57,13.40
2015,09,19,04,58,13.40
2015,09,19,04,59,13.40
2015,09,19,05,00,13.40
2015,09,19,05,01,13.40
2015,09,19,05,02,13.40
2015,09,19,05,03,13.40
2015,09,19,05,04,13.40
2015,09,19,05,05,13.40
2015,09,19,05,06,13.40
2015,09,19,05,07,13.40
2015,09,19,05,08,13.40
2015,09,19,05,09,13.40
2015,09,19,05,10,13.40
2015,09,19,05,11,13.40
2015,09,19,05,12,13.40
2015,09,19,05,13,13.40
2015,09,19,05,14,13.40
2015,09,19,05,15,13.40
2015,09,19,05,16,13.40
2015,09,19,05,17,13.40
2015,09,19,05,18,13.40
2015,09,19,05,19,13.40
2015,09,19,05,20,13.40
2015,09,19,05,21,13.40
2015,09,19,05,22,13.40
2015,09,19,05,23,13.40
2015,09,19,05,24,13.40
2015,09,19,05,25,13.40
2015,09,19,05,26,13.40
2015,09,19,05,27,13.40
2015,09,19,05,28,13.40
2015,09,19,05,29,13.40
2015,09,19,05,30,13.40
2015,09,19,05,31,13.40
2015,09,19,05,32,13.40
2015,09,19,05,33,13.30
2015,09,19,05,34,13.30
2015,09,19,05,35,13.30
2015,09,19,05,36,13.30
2015,09,19,05,37,13.30
2015,09,19,05,38,13.30
2015,09,19,05,39,13.30
2015,09,19,05,40,13.30
2015,09,19,05,41,13.30
2015,09,19,05,42,13.30
2015,09,19,05,43,13.30
2015,09,19,05,44,13.30
2015,09,19,05,45,13.30
2015,09,19,05,46,13.30
2015,09,19,05,47,13.30
2015,09,19,05,48,13.30
2015,09,19,05,49,13.30
2015,09,19,05,50,13.30
2015,09,19,05,51,13.30
2015,09,19,05,52,13.30
2015,09,19,05,53,13.30
2015,09,19,05,54,13.30
2015,09,19,05,55,13.30
2015,09,19,05,56,13.30
2015,09,19,05,57,13.30
2015,09,19,05,58,13.30
2015,09,19,05,59,13.30
2015,09,19,06,00,13.30
2015,09,19,06,01,13.30
2015,09,19,06,02,13.30
2015,09,19,06,03,13.30
2015,09,19,06,04,13.30
2015,09,19,06,05,13.30
2015,09,19,06,06,13.30
2015,09,19,06,07,13.30
2015,09,19,06,08,13.30
2015,09,19,06,09,13.30
2015,09,19,06,10,13.30
2015,09,19,06,11,13.30
2015,09,19,06,12,13.30
2015,09,19,06,13,13.30
2015,09,19,06,14,13.30
2015,09,19,06,15,13.30
2015,09,19,06,16,13.30
2015,09,19,06,17,13.30
2015,09,19,06,18,13.30
2015,09,19,06,19,13.30
2015,09,19,06,20,13.30
2015,09,19,06,21,13.30
2015,09,19,06,22,13.30
2015,09,19,06,23,13.30
2015,09,19,06,24,13.30
2015,09,19,06,25,13.30
2015,09,19,06,26,13.30
2015,09,19,06,27,13.30
2015,09,19,06,28,13.30
2015,09,19,06,29,13.30
2015,09,19,06,30,13.30
2015,09,19,06,31,13.20
2015,09,19,06,32,13.20
2015,09,19,06,33,13.20
2015,09,19,06,34,13.20
2015,09,19,06,35,13.20
2015,09,19,06,36,13.20
2015,09,19,06,37,13.20
2015,09,19,06,38,13.20
2015,09,19,06,39,13.20
2015,09,19,06,40,13.20
2015,09,19,06,41,13.20
2015,09,19,06,42,13.20
2015,09,19,06,43,13.20
2015,09,19,06,44,13.20
2015,09,19,06,45,13.20
2015,09,19,06,46,13.20
2015,09,19,06,47,13.20
2015,09,19,06,48,13.20
2015,09,19,06,49,13.20
2015,09,19,06,50,13.20
2015,09,19,06,51,13.20
2015,09,19,06,52,13.20
2015,09,19,06,53,13.20
2015,09,19,06,54,13.20
2015,09,19,06,55,13.20
2015,09,19,06,56,13.20
2015,09,19,06,57,13.20
2015,09,19,06,58,13.20
2015,09,19,06,59,13.20
2015,09,19,07,00,13.20
2015,09,19,07,01,13.20
2015,09,19,07,02,13.20
2015,09,19,07,03,13.20
2015,09,19,07,04,13.20
2015,09,19,07,05,13.20
2015,09,19,07,06,13.20
2015,09,19,07,07,13.20
2015,09,19,07,08,13.20
2015,09,19,07,09,13.20
2015,09,19,07,10,13.20
2015,09,19,07,11,13.20
2015,09,19,07,12,13.20
2015,09,19,07,13,13.20
2015,09,19,07,14,13.20
2015,09,19,07,15,13.20
2015,09,19,07,16,13.20
2015,09,19,07,17,13.20
2015,09,19,07,18,13.20
2015,09,19,07,19,13.20
2015,09,19,07,20,13.20
2015,09,19,07,21,13.20
2015,09,19,07,22,13.20
2015,09,19,07,23,13.20
2015,09,19,07,24,13.20
2015,09,19,07,25,13.20
2015,09,19,07,26,13.20
2015,09,19,07,27,13.20
2015,09,19,07,28,13.20
2015,09,19,07,29,13.20
2015,09,19,07,30,13.20
2015,09,19,07,31,13.20
2015,09,19,07,32,13.20
2015,09,19,07,33,13.20
2015,09,19,07,34,13.20
2015,09,19,07,35,13.20
2015,09,19,07,36,13.20
2015,09,19,07,37,13.20
2015,09,19,07,38,13.20
2015,09,19,07,39,13.20
2015,09,19,07,40,13.20
2015,09,19,07,41,13.20
2015,09,19,07,42,13.20
2015,09,19,07,43,13.20
2015,09,19,07,44,13.20
2015,09,19,07,45,13.20
2015,09,19,07,46,13.10
2015,09,19,07,47,13.10
2015,09,19,07,48,13.10
2015,09,19,07,49,13.10
2015,09,19,07,50,13.10
2015,09,19,07,51,13.10
2015,09,19,07,52,13.10
2015,09,19,07,53,13.10
2015,09,19,07,54,13.10
2015,09,19,07,55,13.10
2015,09,19,07,56,13.10
2015,09,19,07,57,13.10
2015,09,19,07,58,13.10
2015,09,19,07,59,13.10
2015,09,19,08,00,13.10
2015,09,19,08,01,13.10
2015,09,19,08,02,13.10
2015,09,19,08,03,13.10
2015,09,19,08,04,13.10
2015,09,19,08,05,13.10
2015,09,19,08,06,13.10
2015,09,19,08,07,13.10
2015,09,19,08,08,13.10
2015,09,19,08,09,13.10
2015,09,19,08,10,13.10
2015,09,19,08,11,13.10
2015,09,19,08,12,13.10
2015,09,19,08,13,13.10
2015,09,19,08,14,13.10
2015,09,19,08,15,13.10
2015,09,19,08,16,13.00
2015,09,19,08,17,13.00
2015,09,19,08,18,13.00
2015,09,19,08,19,13.00
2015,09,19,08,20,13.00
2015,09,19,08,21,13.00
2015,09,19,08,22,13.00
2015,09,19,08,23,13.00
2015,09,19,08,24,12.90
2015,09,19,08,25,12.90
2015,09,19,08,26,12.90
2015,09,19,08,27,12.90
2015,09,19,08,28,12.90
2015,09,19,08,29,12.90
2015,09,19,08,30,12.90
2015,09,19,08,31,12.90
2015,09,19,08,32,12.90
2015,09,19,08,33,12.90
2015,09,19,08,34,12.90
2015,09,19,08,35,12.90
2015,09,19,08,36,12.90
2015,09,19,08,37,12.90
2015,09,19,08,38,12.90
2015,09,19,08,39,12.90
2015,09,19,08,40,12.90
2015,09,19,08,41,12.90
2015,09,19,08,42,12.90
2015,09,19,08,43,12.90
2015,09,19,08,44,12.90
2015,09,19,08,45,12.90
2015,09,19,08,46,12.90
2015,09,19,08,47,13.00
2015,09,19,08,48,13.00
2015,09,19,08,49,12.90
2015,09,19,08,50,12.90
2015,09,19,08,51,12.90
2015,09,19,08,52,12.90
2015,09,19,08,53,12.90
2015,09,19,08,54,12.90
2015,09,19,08,55,12.90
2015,09,19,08,56,12.90
2015,09,19,08,57,12.90
2015,09,19,08,58,12.90
2015,09,19,08,59,12.90
2015,09,19,09,00,12.90
2015,09,19,09,01,13.00
2015,09,19,09,02,13.00
2015,09,19,09,03,13.00
2015,09,19,09,04,13.00
2015,09,19,09,05,13.00
2015,09,19,09,06,13.00
2015,09,19,09,07,13.00
2015,09,19,09,08,13.00
2015,09,19,09,09,13.10
2015,09,19,09,10,13.10
2015,09,19,09,11,13.10
2015,09,19,09,12,13.10
2015,09,19,09,13,13.10
2015,09,19,09,14,13.10
2015,09,19,09,15,13.10
2015,09,19,09,16,13.10
2015,09,19,09,17,13.10
2015,09,19,09,18,13.10
2015,09,19,09,19,13.10
2015,09,19,09,20,13.10
2015,09,19,09,21,13.00
2015,09,19,09,22,13.10
2015,09,19,09,23,13.10
2015,09,19,09,24,13.10
2015,09,19,09,25,13.10
2015,09,19,09,26,13.10
2015,09,19,09,27,13.10
2015,09,19,09,28,13.10
2015,09,19,09,29,13.10
2015,09,19,09,30,13.10
2015,09,19,09,31,13.10
2015,09,19,09,32,13.10
2015,09,19,09,33,13.10
2015,09,19,09,34,13.10
2015,09,19,09,35,13.10
2015,09,19,09,36,13.10
2015,09,19,09,37,13.10
2015,09,19,09,38,13.10
2015,09,19,09,39,13.10
2015,09,19,09,40,13.10
2015,09,19,09,41,13.10
2015,09,19,09,42,13.20
2015,09,19,09,43,13.20
2015,09,19,09,44,13.20
2015,09,19,09,45,13.20
2015,09,19,09,46,13.20
2015,09,19,09,47,13.20
2015,09,19,09,48,13.20
2015,09,19,09,49,13.20
2015,09,19,09,50,13.20
2015,09,19,09,51,13.20
2015,09,19,09,52,13.30
2015,09,19,09,53,13.30
2015,09,19,09,54,13.30
2015,09,19,09,55,13.30
2015,09,19,09,56,13.30
2015,09,19,09,57,13.30
2015,09,19,09,58,13.30
2015,09,19,09,59,13.30
2015,09,19,10,00,13.40
2015,09,19,10,01,13.40
2015,09,19,10,02,13.40
2015,09,19,10,03,13.40
2015,09,19,10,04,13.40
2015,09,19,10,05,13.40
2015,09,19,10,06,13.40
2015,09,19,10,07,13.40
2015,09,19,10,08,13.40
2015,09,19,10,09,13.50
2015,09,19,10,10,13.50
2015,09,19,10,11,13.50
2015,09,19,10,12,13.50
2015,09,19,10,13,13.60
2015,09,19,10,14,13.60
2015,09,19,10,15,13.60
2015,09,19,10,16,13.60
2015,09,19,10,17,13.60
2015,09,19,10,18,13.60
2015,09,19,10,19,13.60
2015,09,19,10,20,13.60
2015,09,19,10,21,13.60
2015,09,19,10,22,13.60
2015,09,19,10,23,13.70
2015,09,19,10,24,13.70
2015,09,19,10,25,13.70
2015,09,19,10,26,13.70
2015,09,19,10,27,13.70
2015,09,19,10,28,13.70
2015,09,19,10,29,13.70
2015,09,19,10,30,13.70
2015,09,19,10,31,13.70
2015,09,19,10,32,13.80
2015,09,19,10,33,13.80
2015,09,19,10,34,13.80
2015,09,19,10,35,13.80
2015,09,19,10,36,13.80
2015,09,19,10,37,13.80
2015,09,19,10,38,13.90
2015,09,19,10,39,13.90
2015,09,19,10,40,13.90
2015,09,19,10,41,13.90
2015,09,19,10,42,13.90
2015,09,19,10,43,13.90
2015,09,19,10,44,13.90
2015,09,19,10,45,14.00
2015,09,19,10,46,14.00
2015,09,19,10,47,14.00
2015,09,19,10,48,14.00
2015,09,19,10,49,14.00
2015,09,19,10,50,14.00
2015,09,19,10,51,14.00
2015,09,19,10,52,14.00
2015,09,19,10,53,14.00
2015,09,19,10,54,14.00
2015,09,19,10,55,13.90
2015,09,19,10,56,13.90
2015,09,19,10,57,13.90
2015,09,19,10,58,14.00
2015,09,19,10,59,14.00
2015,09,19,11,00,14.00
2015,09,19,11,01,14.00
2015,09,19,11,02,14.00
2015,09,19,11,03,14.00
2015,09,19,11,04,13.90
2015,09,19,11,05,13.90
2015,09,19,11,06,13.90
2015,09,19,11,07,14.00
2015,09,19,11,08,14.00
2015,09,19,11,09,14.00
2015,09,19,11,10,14.00
2015,09,19,11,11,14.00
2015,09,19,11,12,14.00
2015,09,19,11,13,14.00
2015,09,19,11,14,14.00
2015,09,19,11,15,14.00
2015,09,19,11,16,14.00
2015,09,19,11,17,14.00
2015,09,19,11,18,14.00
2015,09,19,11,19,14.00
2015,09,19,11,20,14.10
2015,09,19,11,21,14.10
2015,09,19,11,22,14.10
2015,09,19,11,23,14.10
2015,09,19,11,24,14.10
2015,09,19,11,25,14.10
2015,09,19,11,26,14.10
2015,09,19,11,27,14.20
2015,09,19,11,28,14.20
2015,09,19,11,29,14.20
2015,09,19,11,30,14.20
2015,09,19,11,31,14.20
2015,09,19,11,32,14.10
2015,09,19,11,33,14.10
2015,09,19,11,34,14.10
2015,09,19,11,35,14.10
2015,09,19,11,36,14.10
2015,09,19,11,37,14.10
2015,09,19,11,38,14.10
2015,09,19,11,39,14.10
2015,09,19,11,40,14.10
2015,09,19,11,41,14.10
2015,09,19,11,42,14.20
2015,09,19,11,43,14.20
2015,09,19,11,44,14.20
2015,09,19,11,45,14.20
2015,09,19,11,46,14.20
2015,09,19,11,47,14.20
2015,09,19,11,48,14.20
2015,09,19,11,49,14.20
2015,09,19,11,50,14.20
2015,09,19,11,51,14.20
2015,09,19,11,52,14.30
2015,09,19,11,53,14.30
2015,09,19,11,54,14.30
2015,09,19,11,55,14.30
2015,09,19,11,56,14.30
2015,09,19,11,57,14.30
2015,09,19,11,58,14.30
2015,09,19,11,59,14.30
2015,09,19,12,00,14.30
2015,09,19,12,01,14.30
2015,09,19,12,02,14.30
2015,09,19,12,03,14.30
2015,09,19,12,04,14.30
2015,09,19,12,05,14.30
2015,09,19,12,06,14.30
2015,09,19,12,07,14.30
2015,09,19,12,08,14.40
2015,09,19,12,09,14.40
2015,09,19,12,10,14.40
2015,09,19,12,11,14.50
2015,09,19,12,12,14.50
2015,09,19,12,13,14.50
2015,09,19,12,14,14.50
2015,09,19,12,15,14.40
2015,09,19,12,16,14.40
2015,09,19,12,17,14.40
2015,09,19,12,18,14.40
2015,09,19,12,19,14.40
2015,09,19,12,20,14.40
2015,09,19,12,21,14.40
2015,09,19,12,22,14.40
2015,09,19,12,23,14.40
2015,09,19,12,24,14.50
2015,09,19,12,25,14.50
2015,09,19,12,26,14.50
2015,09,19,12,27,14.50
2015,09,19,12,28,14.60
2015,09,19,12,29,14.60
2015,09,19,12,30,14.60
2015,09,19,12,31,14.70
2015,09,19,12,32,14.70
2015,09,19,12,33,14.70
2015,09,19,12,34,14.70
2015,09,19,12,35,14.70
2015,09,19,12,36,14.70
2015,09,19,12,37,14.80
2015,09,19,12,38,14.80
2015,09,19,12,39,14.80
2015,09,19,12,40,14.80
2015,09,19,12,41,14.90
2015,09,19,12,42,14.90
2015,09,19,12,43,15.00
2015,09,19,12,44,15.00
2015,09,19,12,45,15.00
2015,09,19,12,46,15.00
2015,09,19,12,47,15.00
2015,09,19,12,48,15.00
2015,09,19,12,49,15.00
2015,09,19,12,50,15.00
2015,09,19,12,51,15.00
2015,09,19,12,52,15.00
2015,09,19,12,53,15.00
2015,09,19,12,54,15.00
2015,09,19,12,55,15.00
2015,09,19,12,56,15.00
2015,09,19,12,57,15.00
2015,09,19,12,58,15.10
2015,09,19,12,59,15.20
2015,09,19,13,00,15.20
2015,09,19,13,01,15.20
2015,09,19,13,02,15.30
2015,09,19,13,03,15.30
2015,09,19,13,04,15.30
2015,09,19,13,05,15.30
2015,09,19,13,06,15.30
2015,09,19,13,07,15.30
2015,09,19,13,08,15.30
2015,09,19,13,09,15.40
2015,09,19,13,10,15.40
2015,09,19,13,11,15.40
2015,09,19,13,12,15.40
2015,09,19,13,13,15.40
2015,09,19,13,14,15.50
2015,09,19,13,15,15.50
2015,09,19,13,16,15.60
2015,09,19,13,17,15.60
2015,09,19,13,18,15.60
2015,09,19,13,19,15.70
2015,09,19,13,20,15.70
2015,09,19,13,21,15.80
2015,09,19,13,22,15.80
2015,09,19,13,23,15.80
2015,09,19,13,24,15.90
2015,09,19,13,25,15.90
2015,09,19,13,26,16.00
2015,09,19,13,27,16.00
2015,09,19,13,28,16.10
2015,09,19,13,29,16.10
2015,09,19,13,30,16.20
2015,09,19,13,31,16.20
2015,09,19,13,32,16.30
2015,09,19,13,33,16.40
2015,09,19,13,34,16.40
2015,09,19,13,35,16.50
2015,09,19,13,36,16.50
2015,09,19,13,37,16.50
2015,09,19,13,38,16.50
2015,09,19,13,39,16.50
2015,09,19,13,40,16.50
2015,09,19,13,41,16.50
2015,09,19,13,42,16.50
2015,09,19,13,43,16.50
2015,09,19,13,44,16.50
2015,09,19,13,45,16.50
2015,09,19,13,46,16.50
2015,09,19,13,47,16.40
2015,09,19,13,48,16.40
2015,09,19,13,49,16.30
2015,09,19,13,50,16.30
2015,09,19,13,51,16.30
2015,09,19,13,52,16.30
2015,09,19,13,53,16.30
2015,09,19,13,54,16.30
2015,09,19,13,55,16.40
2015,09,19,13,56,16.40
2015,09,19,13,57,16.40
2015,09,19,13,58,16.40
2015,09,19,13,59,16.40
2015,09,19,14,00,16.40
2015,09,19,14,01,16.40
2015,09,19,14,02,16.30
2015,09,19,14,03,16.40
2015,09,19,14,04,16.30
2015,09,19,14,05,16.40
2015,09,19,14,06,16.40
2015,09,19,14,07,16.40
2015,09,19,14,08,16.40
2015,09,19,14,09,16.30
2015,09,19,14,10,16.30
2015,09,19,14,11,16.30
2015,09,19,14,12,16.30
2015,09,19,14,13,16.30
2015,09,19,14,14,16.30
2015,09,19,14,15,16.30
2015,09,19,14,16,16.30
2015,09,19,14,17,16.30
2015,09,19,14,18,16.30
2015,09,19,14,19,16.30
2015,09,19,14,20,16.30
2015,09,19,14,21,16.30
2015,09,19,14,22,16.30
2015,09,19,14,23,16.30
2015,09,19,14,24,16.20
2015,09,19,14,25,16.20
2015,09,19,14,26,16.30
2015,09,19,14,27,16.20
2015,09,19,14,28,16.20
2015,09,19,14,29,16.20
2015,09,19,14,30,16.20
2015,09,19,14,31,16.20
2015,09,19,14,32,16.30
2015,09,19,14,33,16.30
2015,09,19,14,34,16.30
2015,09,19,14,35,16.30
2015,09,19,14,36,16.40
2015,09,19,14,37,16.40
2015,09,19,14,38,16.40
2015,09,19,14,39,16.40
2015,09,19,14,40,16.40
2015,09,19,14,41,16.40
2015,09,19,14,42,16.40
2015,09,19,14,43,16.40
2015,09,19,14,44,16.40
2015,09,19,14,45,16.40
2015,09,19,14,46,16.40
2015,09,19,14,47,16.50
2015,09,19,14,48,16.50
2015,09,19,14,49,16.60
2015,09,19,14,50,16.60
2015,09,19,14,51,16.60
2015,09,19,14,52,16.60
2015,09,19,14,53,16.60
2015,09,19,14,54,16.70
2015,09,19,14,55,16.70
2015,09,19,14,56,16.70
2015,09,19,14,57,16.70
2015,09,19,14,58,16.80
2015,09,19,14,59,16.80
2015,09,19,15,00,16.80
2015,09,19,15,01,16.80
2015,09,19,15,02,16.80
2015,09,19,15,03,16.90
2015,09,19,15,04,16.90
2015,09,19,15,05,16.90
2015,09,19,15,06,16.90
2015,09,19,15,07,17.00
2015,09,19,15,08,16.90
2015,09,19,15,09,16.90
2015,09,19,15,10,16.90
2015,09,19,15,11,16.90
2015,09,19,15,12,16.90
2015,09,19,15,13,16.90
2015,09,19,15,14,16.80
2015,09,19,15,15,16.80
2015,09,19,15,16,16.80
2015,09,19,15,17,16.80
2015,09,19,15,18,16.80
2015,09,19,15,19,16.80
2015,09,19,15,20,16.70
2015,09,19,15,21,16.70
2015,09,19,15,22,16.70
2015,09,19,15,23,16.70
2015,09,19,15,24,16.70
2015,09,19,15,25,16.70
2015,09,19,15,26,16.60
2015,09,19,15,27,16.60
2015,09,19,15,28,16.60
2015,09,19,15,29,16.50
2015,09,19,15,30,16.50
2015,09,19,15,31,16.50
2015,09,19,15,32,16.40
2015,09,19,15,33,16.40
2015,09,19,15,34,16.40
2015,09,19,15,35,16.40
2015,09,19,15,36,16.40
2015,09,19,15,37,16.40
2015,09,19,15,38,16.40
2015,09,19,15,39,16.40
2015,09,19,15,40,16.40
2015,09,19,15,41,16.40
2015,09,19,15,42,16.40
2015,09,19,15,43,16.40
2015,09,19,15,44,16.40
2015,09,19,15,45,16.40
2015,09,19,15,46,16.40
2015,09,19,15,47,16.40
2015,09,19,15,48,16.40
2015,09,19,15,49,16.40
2015,09,19,15,50,16.40
2015,09,19,15,51,16.40
2015,09,19,15,52,16.50
2015,09,19,15,53,16.50
2015,09,19,15,54,16.50
2015,09,19,15,55,16.50
2015,09,19,15,56,16.60
2015,09,19,15,57,16.60
2015,09,19,15,58,16.60
2015,09,19,15,59,16.60
2015,09,19,16,00,16.60
2015,09,19,16,01,16.60
2015,09,19,16,02,16.60
2015,09,19,16,03,16.50
2015,09,19,16,04,16.50
2015,09,19,16,05,16.60
2015,09,19,16,06,16.60
2015,09,19,16,07,16.60
2015,09,19,16,08,16.60
2015,09,19,16,09,16.60
2015,09,19,16,10,16.60
2015,09,19,16,11,16.60
2015,09,19,16,12,16.60
2015,09,19,16,13,16.60
2015,09,19,16,14,16.60
2015,09,19,16,15,16.60
2015,09,19,16,16,16.70
2015,09,19,16,17,16.70
2015,09,19,16,18,16.70
2015,09,19,16,19,16.70
2015,09,19,16,20,16.70
2015,09,19,16,21,16.60
2015,09,19,16,22,16.60
2015,09,19,16,23,16.60
2015,09,19,16,24,16.60
2015,09,19,16,25,16.50
2015,09,19,16,26,16.60
2015,09,19,16,27,16.60
2015,09,19,16,28,16.60
2015,09,19,16,29,16.60
2015,09,19,16,30,16.60
2015,09,19,16,31,16.60
2015,09,19,16,32,16.60
2015,09,19,16,33,16.60
2015,09,19,16,34,16.60
2015,09,19,16,35,16.60
2015,09,19,16,36,16.60
2015,09,19,16,37,16.60
2015,09,19,16,38,16.70
2015,09,19,16,39,16.60
2015,09,19,16,40,16.60
2015,09,19,16,41,16.60
2015,09,19,16,42,16.60
2015,09,19,16,43,16.60
2015,09,19,16,44,16.60
2015,09,19,16,45,16.60
2015,09,19,16,46,16.60
2015,09,19,16,47,16.50
2015,09,19,16,48,16.60
2015,09,19,16,49,16.60
2015,09,19,16,50,16.60
2015,09,19,16,51,16.60
2015,09,19,16,52,16.60
2015,09,19,16,53,16.60
2015,09,19,16,54,16.60
2015,09,19,16,55,16.60
2015,09,19,16,56,16.60
2015,09,19,16,57,16.60
2015,09,19,16,58,16.60
2015,09,19,16,59,16.60
2015,09,19,17,00,16.60
2015,09,19,17,01,16.60
2015,09,19,17,02,16.60
2015,09,19,17,03,16.60
2015,09,19,17,04,16.60
2015,09,19,17,05,16.60
2015,09,19,17,06,16.60
2015,09,19,17,07,16.60
2015,09,19,17,08,16.60
2015,09,19,17,09,16.60
2015,09,19,17,10,16.50
2015,09,19,17,11,16.50
2015,09,19,17,12,16.50
2015,09,19,17,13,16.50
2015,09,19,17,14,16.40
2015,09,19,17,15,16.40
2015,09,19,17,16,16.50
2015,09,19,17,17,16.50
2015,09,19,17,18,16.50
2015,09,19,17,19,16.50